Location: Bonchamp
(48.0736°N, 0.7000°W)
Time: 22:25:01
(UTC+00:00)

Daily predictions for brighter satellites

Satellite Brightness Start Highest point End
(mag) Time Altitude Azimuth Time Altitude Azimuth Time Altitude Azimuth
Meteor 1-21 4.5 17:03:01 10° SSE 17:08:22 49° E 17:13:47 10° NNE
USA 306 3.2 17:09:01 10° NW 17:10:31 17° N 17:12:21 10° NE
SL-14 R/B 3.5 17:06:49 10° SSW 17:10:34 72° W 17:14:21 10° N
Cosmos 1758 3.6 17:06:53 10° NNW 17:10:44 72° W 17:14:35 10° S
CORIOLIS 4.2 17:05:39 10° SSE 17:11:01 72° ENE 17:16:28 10° N
Cosmos 1763 Rocket 3.8 17:06:18 10° S 17:11:17 49° ESE 17:16:16 10° NNE
Spot 4 Rocket 4.1 17:07:35 10° SSE 17:12:36 58° ENE 17:17:38 10° N
YAOGAN 1 4.1 17:11:11 10° E 17:13:37 15° ENE 17:16:04 10° NNE
Cosmos 1733 Rocket 3.7 17:10:21 10° N 17:14:23 34° ENE 17:18:23 10° SE
Cosmos 540 Rocket 3.9 17:12:13 10° S 17:17:03 43° ESE 17:21:53 10° NE
Cosmos 2322 3.8 17:13:52 10° SSW 17:19:36 89° WNW 17:25:22 10° NNE
USA 215 3.6 17:17:00 10° NE 17:23:25 59° NNW 17:29:48 10° W
Cosmos 2228 Rocket 3.8 17:20:56 10° SSE 17:25:02 35° E 17:29:11 10° NNE
Cosmos 2279 Rocket 4.0 17:20:26 10° N 17:26:36 61° ENE 17:32:42 10° SSE
Meteor 1-12 Rocket 4.4 17:21:37 10° NNW 17:27:22 86° W 17:33:11 10° S
NOSS 8 (A) 4.3 17:25:20 10° NNW 17:28:11 50° NE 17:31:29 10° SE
Cosmos 1898 Rocket 3.9 17:24:03 10° N 17:29:02 40° ENE 17:34:01 10° SE
Aureole 1 Rocket 4.4 17:25:31 10° NNW 17:33:08 57° ENE 17:39:58 10° SE
PSLV R/B 3.3 17:29:17 10° SSE 17:33:20 78° ENE 17:37:26 10° N
Okean 1-7 4.0 17:35:14 10° SE 17:38:46 26° E 17:42:19 10° NNE
Cosmos 1980 3.9 17:33:26 10° S 17:38:51 51° ESE 17:44:18 10° NE
SL-16 R/B 3.8 17:35:50 10° SE 17:38:54 15° E 17:40:55 13° ENE
SMAP 3.6 17:37:50 10° S 17:42:26 63° WSW 17:47:05 10° NNW
Cosmos 1953 2.1 17:39:35 10° N 17:43:18 62° ENE 17:46:58 10° SSE
NOSS 0 Rocket 3.9 17:42:33 10° SSW 17:48:42 79° ESE 17:54:52 10° NNE
SKYMED 2 4.0 17:45:43 10° NNE 17:49:52 41° E 17:53:58 10° S
Cosmos 1818 4.1 17:46:20 10° NNW 17:51:27 38° NE 17:56:18 11° ESE
ATLAS 2AS CENTAUR R/B 3.0 17:46:25 10° NW 17:52:56 43° NE 17:59:04 11° ESE
NOSS 8 (H) 4.4 17:49:35 10° SW 17:53:37 85° SE 17:55:54 18° NE
Cosmos 2369 Rocket 3.3 17:50:09 10° N 17:54:30 22° NE 17:56:55 17° ENE
SL-16 R/B 4.5 17:49:45 10° N 17:54:44 26° NW 17:59:42 10° WSW
COSMOS 2428 3.2 17:50:26 10° SW 17:56:03 60° WNW 18:01:42 10° NNE
ACS3 Solar Sail 2.0 17:50:11 10° SE 17:56:19 51° ENE 18:02:27 10° N
IGS 5A 3.7 17:53:08 10° S 17:57:08 71° WSW 18:01:10 10° NNW
Cosmos 2333 Rocket 4.3 17:53:59 10° W 17:58:00 19° NW 18:02:04 10° N
Cosmos 372 Rocket 3.9 17:54:07 10° NNW 17:59:11 65° ENE 18:04:14 10° SSE
Cosmos 1174 4.3 17:56:10 10° NW 17:59:47 64° WSW 18:04:12 10° SSE
DNEPR-1 R/B 3.7 17:59:00 10° NW 18:03:53 83° SW 18:08:09 10° SSE
BREEZE-M DEB (TANK) 3.6 17:55:12 10° WSW 18:05:09 83° NNW 18:07:22 24° ENE
Cosmos 2322 Rocket 4.5 18:04:05 10° WNW 18:07:23 16° NW 18:10:42 10° N
Cosmos 1908 Rocket 4.0 18:03:25 10° N 18:07:29 37° ENE 18:11:30 10° SE
Cosmos 2360 Rocket 4.4 18:06:33 10° WNW 18:10:14 17° NW 18:13:55 10° N
Meteor 1-31 Rocket 2.5 18:09:05 10° SSE 18:12:34 56° ENE 18:16:05 10° N
Okean 3 3.7 18:08:49 10° SSW 18:12:53 69° W 18:17:01 10° N
Cosmos 1707 Rocket 3.7 18:09:15 10° SSW 18:13:41 76° W 18:18:08 10° N
EO 1 Delta rocket 3.8 18:09:05 10° NNE 18:13:46 60° E 18:18:22 10° S
Okean 2 3.4 18:12:44 10° SSW 18:16:41 77° W 18:20:40 10° N
Cosmos 2297 4.4 18:12:40 10° NNW 18:17:53 34° NE 18:20:17 24° E
Cosmos 1937 Rocket 3.3 18:14:03 10° NNW 18:19:13 72° ENE 18:24:22 10° SSE
CZ-2C R/B 3.2 18:22:18 32° NE 18:22:18 32° NE 18:24:38 10° N
Cosmos 2026 Rocket 4.4 18:16:36 10° SSE 18:22:28 41° E 18:28:20 10° NNE
Cosmos 858 Rocket 4.4 18:18:36 10° NNW 18:23:46 61° ENE 18:28:55 10° SE
BREEZE-M DEB (TANK) 3.8 18:10:15 10° WSW 18:26:24 74° SSE 18:28:56 30° E
Cosmos 1943 Rocket 3.0 18:22:29 10° NW 18:27:59 53° WSW 18:33:23 10° S
RESURS DK-1 3.4 18:24:52 10° NW 18:28:44 45° WSW 18:32:34 10° S
Cosmos 1428 Rocket 4.4 18:23:09 10° S 18:29:13 60° E 18:35:16 10° NNE
YAOGAN 3 4.4 18:26:24 10° SSE 18:30:35 62° ENE 18:34:49 10° N
Cosmos 1862 Rocket 4.2 18:27:21 10° SSW 18:31:38 55° WNW 18:35:59 10° N
Cosmos 2237 Rocket 2.4 18:27:16 10° SW 18:32:57 72° WNW 18:37:58 14° NNE
BlueWalker 3 1.9 18:29:50 10° WNW 18:33:27 57° NNE 18:33:53 52° NE
NOAA 15 4.5 18:30:08 10° SSE 18:35:22 84° ENE 18:40:38 10° NNW
COSMO-SKYMED 1 2.9 18:33:42 10° N 18:38:02 65° WNW 18:42:20 10° SSW
CZ-4B R/B 3.7 18:34:48 10° S 18:38:24 72° WSW 18:41:57 10° NNW
ISS -3.9 18:35:27 10° WSW 18:38:48 78° NNW 18:39:01 73° NNE
NOAA 6 4.1 18:35:13 10° SSE 18:40:20 79° WSW 18:45:29 10° NNW
USA 306 3.8 18:39:46 10° NW 18:40:49 21° NNW 18:40:49 21° NNW
Cosmos 2278 Rocket 4.0 18:37:13 10° NW 18:42:12 32° WSW 18:47:08 10° SSW
Cosmos 2344 3.9 18:35:55 10° WSW 18:43:13 56° NW 18:48:48 18° NE
Cosmos 1782 Rocket 4.5 18:39:09 10° N 18:41:42 31° NNE 18:41:42 31° NNE
Cosmos 2219 Rocket 4.5 18:41:45 10° WNW 18:45:16 17° NW 18:48:48 10° N
YAOGAN 1 2.8 18:44:45 10° S 18:49:00 70° WSW 18:53:18 10° NNW
CZ-4C R/B 1.8 18:46:30 10° SW 18:50:56 80° NW 18:53:04 36° NE
YAOGAN 11 3.9 18:51:30 60° NE 18:52:05 69° ESE 18:56:21 10° S
Nadezhda 4 Rocket 4.2 18:46:41 10° SSW 18:52:45 72° W 18:58:56 10° N
ATLAS 5 CENTAUR R/B 1.8 18:52:32 10° SSW 18:54:38 39° SSW 18:54:38 39° SSW
Cosmos 2195 Rocket 4.3 18:51:06 10° S 18:57:18 83° E 19:03:28 10° N
Meteor 1-24 Rocket 4.0 18:51:44 10° SSE 18:57:23 49° E 18:58:09 46° ENE
SPOT 1/Viking Rocket 3.5 18:55:07 10° SSE 19:00:18 88° WSW 19:05:29 10° NNW
Cosmos 1703 Rocket 3.5 18:55:54 10° S 19:00:21 84° W 19:02:12 35° N
Resurs 1-3 3.6 19:00:29 10° S 19:04:47 78° WSW 19:09:08 10° NNW
USA 215 4.0 19:03:32 31° NE 19:05:48 41° N 19:11:49 10° WNW
Meteor 2-5 Rocket 3.8 19:02:22 10° S 19:07:38 55° ESE 19:07:38 55° ESE
Cosmos 1703 3.9 19:07:16 10° SSW 19:10:33 47° W 19:10:33 47° W
Cosmos 841 Rocket 4.1 19:06:53 10° SW 19:12:02 55° WNW 19:15:03 24° N
Cosmos 1656 Rocket 3.6 19:07:06 10° NNW 19:12:37 85° WSW 19:14:50 38° SSE
SL-16 R/B 2.1 19:16:28 10° SSW 19:22:09 88° ESE 19:22:49 71° NNE
Cosmos 1553 Rocket 3.9 19:18:14 10° N 19:23:51 65° NE 19:23:51 65° NE
ADEOS 3.7 19:29:31 64° NNW 19:29:31 64° NNW 19:33:55 10° NNW
Resurs 01 Rocket 4.2 19:34:52 11° N 19:34:52 11° N 19:35:01 10° N
Cosmos 1818 4.4 19:29:55 10° NW 19:35:08 48° WSW 19:37:01 34° SSW
Cosmos 1092 Rocket 4.3 19:32:41 10° SSW 19:38:47 64° WNW 19:45:01 10° N
Cosmos 2369 Rocket 2.2 19:33:34 10° NNW 19:38:45 74° WNW 19:38:45 74° WNW
ACS3 Solar Sail 3.5 19:34:23 10° SSW 19:40:04 33° W 19:45:47 10° NNW
ATLAS 2AS CENTAUR R/B 3.1 19:37:26 10° NW 19:44:03 56° WSW 19:46:35 36° S
Cosmos 839 Rocket 4.1 19:46:49 10° SW 19:52:34 70° SW 19:52:34 70° SW
Cosmos 2297 4.5 19:56:44 10° NW 20:02:14 49° WSW 20:02:16 49° WSW
Cosmos 2237 Rocket 4.5 20:14:18 10° W 20:18:04 18° NW 20:19:49 16° NNW
CZ-4C R/B 4.3 20:36:07 10° WNW 20:38:08 19° NW 20:38:08 19° NW
